Location: ????????
(55.5667°N, 37.5833°E)
Time: 19:53:06
(UTC+00:00)

SL-16 R/B - Pass Details

Date: 14 April 2026
Orbit: 841 x 845 km, 71.0° (Epoch: 19 May)

Event Time Altitude Azimuth Distance (km) Brightness Sun altitude
Rises 18:13:39 0° 259° (W) 3,400 6.0 -13.2°
Reaches altitude 10° 18:16:28 10° 272° (W) 2,468 5.4 -13.5°
Maximum altitude 18:21:15 27° 329° (NNW) 1,568 4.4 -14.0°
Drops below altitude 10° 18:26:03 10° 27° (NNE) 2,478 4.8 -14.5°
Sets 18:28:54 0° 40° (NE) 3,416 5.4 -14.8°
